• In Hungary
  • List of Countries
  • For 7 days
  • Water Temperature
  • Satellite Maps
  • Weather Map
  • News
  • Weather Widgets
  • user-avatar
    Login

    Hourly Weather Miechów

    Today, 24 September, Monday

    Time Temperature Precipitation Wind Pressure Humidity
    00:00 +15°C° 2.4 mm 9 mps 724 mmHg 79%
    01:00 +15°C° 2.4 mm 9 mps 724 mmHg 85%
    02:00 +12°C° 0.3 mm 9 mps 725 mmHg 83%
    03:00 +9°C° 0.3 mm 10 mps 727 mmHg 82%
    04:00 +7°C° 0.3 mm 10 mps 728 mmHg 81%
    05:00 +7°C° 0.1 mm 9 mps 729 mmHg 80%
    06:00 +7°C° 0.1 mm 9 mps 731 mmHg 79%
    07:00 +7°C° 0.1 mm 8 mps 732 mmHg 79%
    08:00 +7°C° 0.2 mm 8 mps 733 mmHg 76%
    09:00 +7°C° 0.2 mm 9 mps 734 mmHg 74%
    10:00 +7°C° 0.2 mm 9 mps 735 mmHg 72%
    11:00 +7°C° 0.1 mm 9 mps 735 mmHg 68%
    12:00 +8°C° 0.1 mm 9 mps 736 mmHg 64%
    13:00 +8°C° 0.1 mm 9 mps 737 mmHg 60%
    14:00 +8°C° 0.1 mm 9 mps 737 mmHg 58%
    15:00 +8°C° 0.1 mm 9 mps 737 mmHg 56%
    16:00 +10°C° 0.1 mm 9 mps 737 mmHg 53%
    17:00 +9°C° 0 mm 8 mps 737 mmHg 55%
    18:00 +8°C° 0 mm 7 mps 737 mmHg 58%
    19:00 +7°C° 0 mm 6 mps 738 mmHg 60%
    20:00 +7°C° 0.1 mm 6 mps 738 mmHg 63%
    21:00 +5°C° 0.1 mm 6 mps 739 mmHg 66%
    22:00 +5°C° 0.1 mm 7 mps 739 mmHg 68%
    23:00 +5°C° 0.3 mm 6 mps 740 mmHg 73%

    Tomorrow, 25 September, Tuesday

    Time Temperature Precipitation Wind Pressure Humidity
    00:00 +5°C° 0.3 mm 6 mps 740 mmHg 78%
    01:00 +4°C° 0.3 mm 6 mps 741 mmHg 82%
    02:00 +5°C° 0 mm 5 mps 741 mmHg 83%
    03:00 +5°C° 0 mm 5 mps 742 mmHg 84%
    04:00 +4°C° 0 mm 4 mps 742 mmHg 85%
    05:00 +3°C° 0 mm 5 mps 743 mmHg 83%
    06:00 +3°C° 0 mm 5 mps 743 mmHg 81%
    07:00 +5°C° 0 mm 5 mps 744 mmHg 80%
    08:00 +5°C° 0 mm 6 mps 744 mmHg 72%
    09:00 +7°C° 0 mm 6 mps 745 mmHg 65%
    10:00 +9°C° 0 mm 6 mps 746 mmHg 58%
    11:00 +9°C° 0.2 mm 6 mps 746 mmHg 53%
    12:00 +10°C° 0.2 mm 6 mps 746 mmHg 49%
    13:00 +11°C° 0.2 mm 6 mps 746 mmHg 44%
    14:00 +10°C° 0 mm 6 mps 746 mmHg 44%
    15:00 +10°C° 0 mm 5 mps 746 mmHg 44%
    16:00 +10°C° 0 mm 5 mps 746 mmHg 44%
    17:00 +10°C° 0 mm 4 mps 747 mmHg 50%
    18:00 +8°C° 0 mm 3 mps 747 mmHg 56%
    19:00 +7°C° 0 mm 2 mps 747 mmHg 61%
    20:00 +6°C° 0 mm 2 mps 748 mmHg 66%
    21:00 +6°C° 0 mm 2 mps 748 mmHg 70%
    22:00 +6°C° 0 mm 2 mps 749 mmHg 74%
    23:00 +5°C° 0 mm 2 mps 749 mmHg 77%

    Day after tomorrow, 26 September, Wednesday

    Time Temperature Precipitation Wind Pressure Humidity
    00:00 +5°C° 0 mm 2 mps 749 mmHg 80%
    01:00 +5°C° 0 mm 2 mps 749 mmHg 83%
    02:00 +4°C° 0 mm 2 mps 749 mmHg 85%
    03:00 +4°C° 0 mm 2 mps 749 mmHg 86%
    04:00 +4°C° 0 mm 2 mps 749 mmHg 87%
    05:00 +4°C° 0 mm 2 mps 749 mmHg 84%
    06:00 +5°C° 0 mm 2 mps 749 mmHg 81%
    07:00 +5°C° 0 mm 2 mps 749 mmHg 77%
    08:00 +7°C° 0 mm 2 mps 749 mmHg 68%
    09:00 +9°C° 0 mm 3 mps 748 mmHg 59%
    10:00 +11°C° 0 mm 3 mps 748 mmHg 50%
    11:00 +12°C° 0 mm 3 mps 748 mmHg 46%
    12:00 +13°C° 0 mm 4 mps 747 mmHg 42%
    13:00 +14°C° 0 mm 4 mps 747 mmHg 39%
    14:00 +14°C° 0 mm 4 mps 746 mmHg 40%
    15:00 +14°C° 0 mm 4 mps 745 mmHg 42%
    16:00 +14°C° 0 mm 4 mps 745 mmHg 44%
    17:00 +13°C° 0 mm 4 mps 745 mmHg 47%
    18:00 +12°C° 0 mm 4 mps 745 mmHg 50%
    19:00 +10°C° 0 mm 3 mps 744 mmHg 53%
    20:00 +11°C° 0 mm 4 mps 744 mmHg 52%
    21:00 +11°C° 0 mm 4 mps 744 mmHg 52%
    22:00 +10°C° 0 mm 5 mps 744 mmHg 51%
    23:00 +9°C° 0 mm 5 mps 744 mmHg 51%

    27 September, Thursday

    Time Temperature Precipitation Wind Pressure Humidity
    00:00 +9°C° 0 mm 5 mps 743 mmHg 51%
    01:00 +9°C° 0 mm 5 mps 743 mmHg 51%
    02:00 +9°C° 0 mm 5 mps 743 mmHg 50%
    03:00 +9°C° 0 mm 5 mps 743 mmHg 49%
    04:00 +9°C° 0 mm 5 mps 742 mmHg 49%
    05:00 +9°C° 0 mm 5 mps 742 mmHg 48%
    06:00 +9°C° 0 mm 5 mps 742 mmHg 48%
    07:00 +10°C° 0 mm 5 mps 742 mmHg 47%
    08:00 +12°C° 0 mm 5 mps 742 mmHg 46%
    09:00 +14°C° 0 mm 5 mps 742 mmHg 44%
    10:00 +16°C° 0 mm 5 mps 742 mmHg 42%
    11:00 +17°C° 0 mm 5 mps 742 mmHg 43%
    12:00 +19°C° 0 mm 5 mps 741 mmHg 44%
    13:00 +20°C° 0 mm 5 mps 741 mmHg 45%
    14:00 +20°C° 0 mm 5 mps 741 mmHg 47%
    15:00 +20°C° 0 mm 5 mps 740 mmHg 50%
    16:00 +20°C° 0 mm 4 mps 740 mmHg 52%
    17:00 +18°C° 0 mm 4 mps 740 mmHg 56%
    18:00 +17°C° 0 mm 3 mps 740 mmHg 60%
    19:00 +14°C° 0 mm 3 mps 739 mmHg 64%
    20:00 +14°C° 0 mm 3 mps 739 mmHg 64%
    21:00 +13°C° 0 mm 3 mps 739 mmHg 64%
    22:00 +13°C° 0 mm 3 mps 739 mmHg 64%
    23:00 +12°C° 0 mm 3 mps 738 mmHg 64%

    28 September, Friday

    Time Temperature Precipitation Wind Pressure Humidity
    00:00 +12°C° 0 mm 3 mps 738 mmHg 65%
    01:00 +12°C° 0 mm 3 mps 738 mmHg 65%
    02:00 +12°C° 0 mm 3 mps 737 mmHg 64%
    03:00 +12°C° 0 mm 3 mps 737 mmHg 63%
    04:00 +11°C° 0 mm 3 mps 737 mmHg 62%
    05:00 +12°C° 0 mm 3 mps 737 mmHg 60%
    06:00 +12°C° 0 mm 3 mps 737 mmHg 59%
    07:00 +13°C° 0 mm 3 mps 737 mmHg 57%
    08:00 +14°C° 0 mm 4 mps 737 mmHg 54%
    09:00 +17°C° 0 mm 4 mps 737 mmHg 51%
    10:00 +19°C° 0 mm 4 mps 737 mmHg 48%
    11:00 +19°C° 0 mm 4 mps 737 mmHg 50%
    12:00 +19°C° 0 mm 4 mps 737 mmHg 52%
    13:00 +20°C° 0 mm 4 mps 737 mmHg 55%
    14:00 +18°C° 0 mm 4 mps 737 mmHg 60%
    15:00 +17°C° 0 mm 4 mps 737 mmHg 65%
    16:00 +15°C° 0 mm 4 mps 737 mmHg 71%
    17:00 +14°C° 0.1 mm 3 mps 738 mmHg 73%
    18:00 +13°C° 0.1 mm 3 mps 738 mmHg 75%
    19:00 +12°C° 0.1 mm 2 mps 738 mmHg 77%
    20:00 +12°C° 0 mm 2 mps 739 mmHg 76%
    21:00 +12°C° 0 mm 2 mps 739 mmHg 75%
    22:00 +12°C° 0 mm 1 mps 739 mmHg 74%
    23:00 +12°C° 0 mm 1 mps 739 mmHg 75%

    29 September, Saturday

    Time Temperature Precipitation Wind Pressure Humidity
    00:00 +11°C° 0 mm 1 mps 740 mmHg 75%
    01:00 +11°C° 0 mm 1 mps 740 mmHg 76%
    02:00 +9°C° 0 mm 2 mps 740 mmHg 77%
    03:00 +9°C° 0 mm 2 mps 740 mmHg 78%
    04:00 +8°C° 0 mm 2 mps 740 mmHg 80%
    05:00 +8°C° 0 mm 2 mps 741 mmHg 78%
    06:00 +9°C° 0 mm 3 mps 741 mmHg 75%
    07:00 +9°C° 0 mm 3 mps 742 mmHg 73%
    08:00 +10°C° 0 mm 3 mps 742 mmHg 66%
    09:00 +12°C° 0 mm 4 mps 742 mmHg 59%
    10:00 +14°C° 0 mm 4 mps 743 mmHg 51%
    11:00 +14°C° 0 mm 4 mps 742 mmHg 48%
    12:00 +15°C° 0 mm 4 mps 742 mmHg 44%
    13:00 +15°C° 0 mm 4 mps 742 mmHg 41%
    14:00 +15°C° 0 mm 4 mps 742 mmHg 41%
    15:00 +15°C° 0 mm 4 mps 742 mmHg 42%
    16:00 +14°C° 0 mm 4 mps 742 mmHg 42%
    17:00 +13°C° 0 mm 4 mps 742 mmHg 46%
    18:00 +11°C° 0 mm 3 mps 742 mmHg 51%
    19:00 +9°C° 0 mm 3 mps 742 mmHg 55%
    20:00 +9°C° 0 mm 3 mps 742 mmHg 58%
    21:00 +8°C° 0 mm 3 mps 742 mmHg 61%
    22:00 +8°C° 0 mm 3 mps 742 mmHg 64%
    23:00 +7°C° 0 mm 3 mps 742 mmHg 68%
    Show more

    3.3.7123123